Location: Unspecified
(0.0000°N, 0.0000°E)
Time: 00:48:45
(UTC+00:00)

CZ-3B DEB - Pass Details

Date: 19 December 2025
Orbit: 439 x 40833 km, 23.6° (Epoch: 17 December)

Event Time Altitude Azimuth Distance (km) Brightness Sun altitude
Rises 16:15:45 0° 292° (WNW) 9,132 ? 23.2°
Reaches altitude 10° 16:20:19 10° 296° (WNW) 9,483 ? 22.1°
Maximum altitude 18:46:44 61° 326° (NW) 31,799 ? -11.3°
Drops below altitude 10° 03:45:47 10° 157° (SSE) 3,308 ? -29.9°
Sets 03:48:06 0° 139° (SE) 3,582 ? -29.4°
